Year,Month,Day,Hour,Minute,Value (Times are PST for temperature in C)
2011,11,12,12,12,5.30
2011,11,12,12,13,5.30
2011,11,12,12,14,5.30
2011,11,12,12,15,5.30
2011,11,12,12,16,5.30
2011,11,12,12,17,5.30
2011,11,12,12,18,5.30
2011,11,12,12,19,5.30
2011,11,12,12,20,5.30
2011,11,12,12,21,5.30
2011,11,12,12,22,5.30
2011,11,12,12,23,5.30
2011,11,12,12,24,5.20
2011,11,12,12,25,5.20
2011,11,12,12,26,5.20
2011,11,12,12,27,5.20
2011,11,12,12,28,5.20
2011,11,12,12,29,5.20
2011,11,12,12,30,5.20
2011,11,12,12,31,5.20
2011,11,12,12,32,5.20
2011,11,12,12,33,5.20
2011,11,12,12,34,5.20
2011,11,12,12,35,5.20
2011,11,12,12,36,5.20
2011,11,12,12,37,5.20
2011,11,12,12,38,5.20
2011,11,12,12,39,5.20
2011,11,12,12,40,5.20
2011,11,12,12,41,5.20
2011,11,12,12,42,5.20
2011,11,12,12,43,5.30
2011,11,12,12,44,5.30
2011,11,12,12,45,5.30
2011,11,12,12,46,5.30
2011,11,12,12,47,5.30
2011,11,12,12,48,5.30
2011,11,12,12,49,5.30
2011,11,12,12,50,5.30
2011,11,12,12,51,5.30
2011,11,12,12,52,5.30
2011,11,12,12,53,5.30
2011,11,12,12,54,5.30
2011,11,12,12,55,5.40
2011,11,12,12,56,5.40
2011,11,12,12,57,5.40
2011,11,12,12,58,5.40
2011,11,12,12,59,5.40
2011,11,12,13,00,5.50
2011,11,12,13,01,5.50
2011,11,12,13,02,5.50
2011,11,12,13,03,5.50
2011,11,12,13,04,5.50
2011,11,12,13,05,5.50
2011,11,12,13,06,5.60
2011,11,12,13,07,5.60
2011,11,12,13,08,5.60
2011,11,12,13,09,5.60
2011,11,12,13,10,5.60
2011,11,12,13,11,5.60
2011,11,12,13,12,5.70
2011,11,12,13,13,5.70
2011,11,12,13,14,5.70
2011,11,12,13,15,5.70
2011,11,12,13,16,5.70
2011,11,12,13,17,5.70
2011,11,12,13,18,5.70
2011,11,12,13,19,5.70
2011,11,12,13,20,5.70
2011,11,12,13,21,5.70
2011,11,12,13,22,5.70
2011,11,12,13,23,5.70
2011,11,12,13,24,5.70
2011,11,12,13,25,5.70
2011,11,12,13,26,5.70
2011,11,12,13,27,5.70
2011,11,12,13,28,5.70
2011,11,12,13,29,5.70
2011,11,12,13,30,5.70
2011,11,12,13,31,5.70
2011,11,12,13,32,5.70
2011,11,12,13,33,5.70
2011,11,12,13,34,5.60
2011,11,12,13,35,5.60
2011,11,12,13,36,5.60
2011,11,12,13,37,5.60
2011,11,12,13,38,5.50
2011,11,12,13,39,5.50
2011,11,12,13,40,5.50
2011,11,12,13,41,5.40
2011,11,12,13,42,5.40
2011,11,12,13,43,5.30
2011,11,12,13,44,5.30
2011,11,12,13,45,5.30
2011,11,12,13,46,5.20
2011,11,12,13,47,5.20
2011,11,12,13,48,5.10
2011,11,12,13,49,5.10
2011,11,12,13,50,5.10
2011,11,12,13,51,5.00
2011,11,12,13,52,4.90
2011,11,12,13,53,4.90
2011,11,12,13,54,4.90
2011,11,12,13,55,4.90
2011,11,12,13,56,4.80
2011,11,12,13,57,4.80
2011,11,12,13,58,4.80
2011,11,12,13,59,4.80
2011,11,12,14,00,4.80
2011,11,12,14,01,4.80
2011,11,12,14,02,4.70
2011,11,12,14,03,4.70
2011,11,12,14,04,4.70
2011,11,12,14,05,4.70
2011,11,12,14,06,4.70
2011,11,12,14,07,4.70
2011,11,12,14,08,4.70
2011,11,12,14,09,4.60
2011,11,12,14,10,4.60
2011,11,12,14,11,4.60
2011,11,12,14,12,4.60
2011,11,12,14,13,4.60
2011,11,12,14,14,4.60
2011,11,12,14,15,4.60
2011,11,12,14,16,4.60
2011,11,12,14,17,4.60
2011,11,12,14,18,4.50
2011,11,12,14,19,4.50
2011,11,12,14,20,4.50
2011,11,12,14,21,4.50
2011,11,12,14,22,4.50
2011,11,12,14,23,4.50
2011,11,12,14,24,4.50
2011,11,12,14,25,4.50
2011,11,12,14,26,4.50
2011,11,12,14,27,4.50
2011,11,12,14,28,4.50
2011,11,12,14,29,4.50
2011,11,12,14,30,4.50
2011,11,12,14,31,4.50
2011,11,12,14,32,4.50
2011,11,12,14,33,4.50
2011,11,12,14,34,4.50
2011,11,12,14,35,4.50
2011,11,12,14,36,4.50
2011,11,12,14,37,4.50
2011,11,12,14,38,4.50
2011,11,12,14,39,4.50
2011,11,12,14,40,4.50
2011,11,12,14,41,4.50
2011,11,12,14,42,4.50
2011,11,12,14,43,4.50
2011,11,12,14,44,4.50
2011,11,12,14,45,4.50
2011,11,12,14,46,4.50
2011,11,12,14,47,4.50
2011,11,12,14,48,4.50
2011,11,12,14,49,4.50
2011,11,12,14,50,4.50
2011,11,12,14,51,4.50
2011,11,12,14,52,4.50
2011,11,12,14,53,4.50
2011,11,12,14,54,4.50
2011,11,12,14,55,4.50
2011,11,12,14,56,4.50
2011,11,12,14,57,4.50
2011,11,12,14,58,4.50
2011,11,12,14,59,4.50
2011,11,12,15,00,4.50
2011,11,12,15,01,4.50
2011,11,12,15,02,4.40
2011,11,12,15,03,4.40
2011,11,12,15,04,4.40
2011,11,12,15,05,4.40
2011,11,12,15,06,4.40
2011,11,12,15,07,4.40
2011,11,12,15,08,4.40
2011,11,12,15,09,4.40
2011,11,12,15,10,4.40
2011,11,12,15,11,4.40
2011,11,12,15,12,4.40
2011,11,12,15,13,4.40
2011,11,12,15,14,4.40
2011,11,12,15,15,4.40
2011,11,12,15,16,4.50
2011,11,12,15,17,4.50
2011,11,12,15,18,4.50
2011,11,12,15,19,4.50
2011,11,12,15,20,4.50
2011,11,12,15,21,4.50
2011,11,12,15,22,4.50
2011,11,12,15,23,4.50
2011,11,12,15,24,4.60
2011,11,12,15,25,4.60
2011,11,12,15,26,4.60
2011,11,12,15,27,4.60
2011,11,12,15,28,4.60
2011,11,12,15,29,4.60
2011,11,12,15,30,4.60
2011,11,12,15,31,4.60
2011,11,12,15,32,4.60
2011,11,12,15,33,4.60
2011,11,12,15,34,4.60
2011,11,12,15,35,4.70
2011,11,12,15,36,4.70
2011,11,12,15,37,4.70
2011,11,12,15,38,4.70
2011,11,12,15,39,4.70
2011,11,12,15,40,4.70
2011,11,12,15,41,4.70
2011,11,12,15,42,4.70
2011,11,12,15,43,4.70
2011,11,12,15,44,4.80
2011,11,12,15,45,4.80
2011,11,12,15,46,4.80
2011,11,12,15,47,4.80
2011,11,12,15,48,4.80
2011,11,12,15,49,4.80
2011,11,12,15,50,4.80
2011,11,12,15,51,4.80
2011,11,12,15,52,4.80
2011,11,12,15,53,4.80
2011,11,12,15,54,4.90
2011,11,12,15,55,4.90
2011,11,12,15,56,4.90
2011,11,12,15,57,4.90
2011,11,12,15,58,4.90
2011,11,12,15,59,4.90
2011,11,12,16,00,4.90
2011,11,12,16,01,4.90
2011,11,12,16,02,4.90
2011,11,12,16,03,4.90
2011,11,12,16,04,4.90
2011,11,12,16,05,4.90
2011,11,12,16,06,5.00
2011,11,12,16,07,5.10
2011,11,12,16,08,5.10
2011,11,12,16,09,5.10
2011,11,12,16,10,5.10
2011,11,12,16,11,5.10
2011,11,12,16,12,5.10
2011,11,12,16,13,5.10
2011,11,12,16,14,5.10
2011,11,12,16,15,5.10
2011,11,12,16,16,5.10
2011,11,12,16,17,5.20
2011,11,12,16,18,5.20
2011,11,12,16,19,5.20
2011,11,12,16,20,5.20
2011,11,12,16,21,5.30
2011,11,12,16,22,5.30
2011,11,12,16,23,5.30
2011,11,12,16,24,5.30
2011,11,12,16,25,5.30
2011,11,12,16,26,5.30
2011,11,12,16,27,5.30
2011,11,12,16,28,5.30
2011,11,12,16,29,5.30
2011,11,12,16,30,5.30
2011,11,12,16,31,5.30
2011,11,12,16,32,5.30
2011,11,12,16,33,5.30
2011,11,12,16,34,5.30
2011,11,12,16,35,5.30
2011,11,12,16,36,5.40
2011,11,12,16,37,5.40
2011,11,12,16,38,5.40
2011,11,12,16,39,5.40
2011,11,12,16,40,5.50
2011,11,12,16,41,5.50
2011,11,12,16,42,5.50
2011,11,12,16,43,5.50
2011,11,12,16,44,5.50
2011,11,12,16,45,5.50
2011,11,12,16,46,5.60
2011,11,12,16,47,5.60
2011,11,12,16,48,5.60
2011,11,12,16,49,5.60
2011,11,12,16,50,5.60
2011,11,12,16,51,5.60
2011,11,12,16,52,5.60
2011,11,12,16,53,5.60
2011,11,12,16,54,5.60
2011,11,12,16,55,5.70
2011,11,12,16,56,5.70
2011,11,12,16,57,5.70
2011,11,12,16,58,5.70
2011,11,12,16,59,5.70
2011,11,12,17,00,5.70
2011,11,12,17,01,5.70
2011,11,12,17,02,5.70
2011,11,12,17,03,5.70
2011,11,12,17,04,5.70
2011,11,12,17,05,5.70
2011,11,12,17,06,5.70
2011,11,12,17,07,5.70
2011,11,12,17,08,5.70
2011,11,12,17,09,5.70
2011,11,12,17,10,5.70
2011,11,12,17,11,5.70
2011,11,12,17,12,5.70
2011,11,12,17,13,5.70
2011,11,12,17,14,5.70
2011,11,12,17,15,5.80
2011,11,12,17,16,5.80
2011,11,12,17,17,5.80
2011,11,12,17,18,5.80
2011,11,12,17,19,5.80
2011,11,12,17,20,5.80
2011,11,12,17,21,5.80
2011,11,12,17,22,5.80
2011,11,12,17,23,5.80
2011,11,12,17,24,5.80
2011,11,12,17,25,5.80
2011,11,12,17,26,5.80
2011,11,12,17,27,5.80
2011,11,12,17,28,5.80
2011,11,12,17,29,5.90
2011,11,12,17,30,5.90
2011,11,12,17,31,5.90
2011,11,12,17,32,5.90
2011,11,12,17,33,5.90
2011,11,12,17,34,5.90
2011,11,12,17,35,5.90
2011,11,12,17,36,5.90
2011,11,12,17,37,5.90
2011,11,12,17,38,5.90
2011,11,12,17,39,5.90
2011,11,12,17,40,5.90
2011,11,12,17,41,5.90
2011,11,12,17,42,5.90
2011,11,12,17,43,6.00
2011,11,12,17,44,6.00
2011,11,12,17,45,6.00
2011,11,12,17,46,6.00
2011,11,12,17,47,6.00
2011,11,12,17,48,6.00
2011,11,12,17,49,6.00
2011,11,12,17,50,6.00
2011,11,12,17,51,6.00
2011,11,12,17,52,6.00
2011,11,12,17,53,6.00
2011,11,12,17,54,6.00
2011,11,12,17,55,6.00
2011,11,12,17,56,6.00
2011,11,12,17,57,6.00
2011,11,12,17,58,6.00
2011,11,12,17,59,6.10
2011,11,12,18,00,6.10
2011,11,12,18,01,6.10
2011,11,12,18,02,6.10
2011,11,12,18,03,6.10
2011,11,12,18,04,6.10
2011,11,12,18,05,6.20
2011,11,12,18,06,6.20
2011,11,12,18,07,6.20
2011,11,12,18,08,6.20
2011,11,12,18,09,6.20
2011,11,12,18,10,6.20
2011,11,12,18,11,6.20
2011,11,12,18,12,6.20
2011,11,12,18,13,6.20
2011,11,12,18,14,6.20
2011,11,12,18,15,6.20
2011,11,12,18,16,6.20
2011,11,12,18,17,6.20
2011,11,12,18,18,6.20
2011,11,12,18,19,6.20
2011,11,12,18,20,6.20
2011,11,12,18,21,6.20
2011,11,12,18,22,6.20
2011,11,12,18,23,6.20
2011,11,12,18,24,6.20
2011,11,12,18,25,6.20
2011,11,12,18,26,6.20
2011,11,12,18,27,6.20
2011,11,12,18,28,6.20
2011,11,12,18,29,6.20
2011,11,12,18,30,6.20
2011,11,12,18,31,6.20
2011,11,12,18,32,6.20
2011,11,12,18,33,6.20
2011,11,12,18,34,6.20
2011,11,12,18,35,6.20
2011,11,12,18,36,6.20
2011,11,12,18,37,6.20
2011,11,12,18,38,6.20
2011,11,12,18,39,6.20
2011,11,12,18,40,6.30
2011,11,12,18,41,6.30
2011,11,12,18,42,6.30
2011,11,12,18,43,6.30
2011,11,12,18,44,6.30
2011,11,12,18,45,6.30
2011,11,12,18,46,6.30
2011,11,12,18,47,6.30
2011,11,12,18,48,6.40
2011,11,12,18,49,6.40
2011,11,12,18,50,6.40
2011,11,12,18,51,6.40
2011,11,12,18,52,6.40
2011,11,12,18,53,6.40
2011,11,12,18,54,6.40
2011,11,12,18,55,6.40
2011,11,12,18,56,6.40
2011,11,12,18,57,6.40
2011,11,12,18,58,6.40
2011,11,12,18,59,6.40
2011,11,12,19,00,6.40
2011,11,12,19,01,6.40
2011,11,12,19,02,6.40
2011,11,12,19,03,6.40
2011,11,12,19,04,6.40
2011,11,12,19,05,6.40
2011,11,12,19,06,6.40
2011,11,12,19,07,6.40
2011,11,12,19,08,6.40
2011,11,12,19,09,6.40
2011,11,12,19,10,6.40
2011,11,12,19,11,6.40
2011,11,12,19,12,6.40
2011,11,12,19,13,6.40
2011,11,12,19,14,6.40
2011,11,12,19,15,6.40
2011,11,12,19,16,6.40
2011,11,12,19,17,6.40
2011,11,12,19,18,6.40
2011,11,12,19,19,6.40
2011,11,12,19,20,6.40
2011,11,12,19,21,6.40
2011,11,12,19,22,6.40
2011,11,12,19,23,6.40
2011,11,12,19,24,6.40
2011,11,12,19,25,6.40
2011,11,12,19,26,6.40
2011,11,12,19,27,6.40
2011,11,12,19,28,6.40
2011,11,12,19,29,6.40
2011,11,12,19,30,6.40
2011,11,12,19,31,6.40
2011,11,12,19,32,6.40
2011,11,12,19,33,6.40
2011,11,12,19,34,6.40
2011,11,12,19,35,6.40
2011,11,12,19,36,6.40
2011,11,12,19,37,6.40
2011,11,12,19,38,6.40
2011,11,12,19,39,6.50
2011,11,12,19,40,6.60
2011,11,12,19,41,6.60
2011,11,12,19,42,6.60
2011,11,12,19,43,6.60
2011,11,12,19,44,6.60
2011,11,12,19,45,6.60
2011,11,12,19,46,6.60
2011,11,12,19,47,6.60
2011,11,12,19,48,6.60
2011,11,12,19,49,6.60
2011,11,12,19,50,6.60
2011,11,12,19,51,6.60
2011,11,12,19,52,6.60
2011,11,12,19,53,6.60
2011,11,12,19,54,6.60
2011,11,12,19,55,6.60
2011,11,12,19,56,6.60
2011,11,12,19,57,6.60
2011,11,12,19,58,6.60
2011,11,12,19,59,6.60
2011,11,12,20,00,6.60
2011,11,12,20,01,6.70
2011,11,12,20,02,6.70
2011,11,12,20,03,6.70
2011,11,12,20,04,6.70
2011,11,12,20,05,6.70
2011,11,12,20,06,6.70
2011,11,12,20,07,6.70
2011,11,12,20,08,6.70
2011,11,12,20,09,6.80
2011,11,12,20,10,6.80
2011,11,12,20,11,6.80
2011,11,12,20,12,6.80
2011,11,12,20,13,6.80
2011,11,12,20,14,6.80
2011,11,12,20,15,6.80
2011,11,12,20,16,6.80
2011,11,12,20,17,6.80
2011,11,12,20,18,6.80
2011,11,12,20,19,6.80
2011,11,12,20,20,6.80
2011,11,12,20,21,6.80
2011,11,12,20,22,6.80
2011,11,12,20,23,6.80
2011,11,12,20,24,6.80
2011,11,12,20,25,6.80
2011,11,12,20,26,6.80
2011,11,12,20,27,6.80
2011,11,12,20,28,6.80
2011,11,12,20,29,6.80
2011,11,12,20,30,6.80
2011,11,12,20,31,6.80
2011,11,12,20,32,6.80
2011,11,12,20,33,6.80
2011,11,12,20,34,6.80
2011,11,12,20,35,6.80
2011,11,12,20,36,6.80
2011,11,12,20,37,6.80
2011,11,12,20,38,6.80
2011,11,12,20,39,6.80
2011,11,12,20,40,6.80
2011,11,12,20,41,6.80
2011,11,12,20,42,6.80
2011,11,12,20,43,6.80
2011,11,12,20,44,6.80
2011,11,12,20,45,6.80
2011,11,12,20,46,6.80
2011,11,12,20,47,6.80
2011,11,12,20,48,6.80
2011,11,12,20,49,6.80
2011,11,12,20,50,6.90
2011,11,12,20,51,6.90
2011,11,12,20,52,6.90
2011,11,12,20,53,6.90
2011,11,12,20,54,7.00
2011,11,12,20,55,7.00
2011,11,12,20,56,7.00
2011,11,12,20,57,7.00
2011,11,12,20,58,7.00
2011,11,12,20,59,7.00
2011,11,12,21,00,7.00
2011,11,12,21,01,7.00
2011,11,12,21,02,7.00
2011,11,12,21,03,7.00
2011,11,12,21,04,7.00
2011,11,12,21,05,7.00
2011,11,12,21,06,7.00
2011,11,12,21,07,7.00
2011,11,12,21,08,7.00
2011,11,12,21,09,7.00
2011,11,12,21,10,7.10
2011,11,12,21,11,7.10
2011,11,12,21,12,7.10
2011,11,12,21,13,7.00
2011,11,12,21,14,7.00
2011,11,12,21,15,7.00
2011,11,12,21,16,7.00
2011,11,12,21,17,7.00
2011,11,12,21,18,7.00
2011,11,12,21,19,7.00
2011,11,12,21,20,7.00
2011,11,12,21,21,7.10
2011,11,12,21,22,7.10
2011,11,12,21,23,7.00
2011,11,12,21,24,7.00
2011,11,12,21,25,7.00
2011,11,12,21,26,7.00
2011,11,12,21,27,7.00
2011,11,12,21,28,7.00
2011,11,12,21,29,7.00
2011,11,12,21,30,7.00
2011,11,12,21,31,7.00
2011,11,12,21,32,6.90
2011,11,12,21,33,6.90
2011,11,12,21,34,6.90
2011,11,12,21,35,6.90
2011,11,12,21,36,6.90
2011,11,12,21,37,6.80
2011,11,12,21,38,6.80
2011,11,12,21,39,6.80
2011,11,12,21,40,6.80
2011,11,12,21,41,6.80
2011,11,12,21,42,6.80
2011,11,12,21,43,6.80
2011,11,12,21,44,6.80
2011,11,12,21,45,6.80
2011,11,12,21,46,6.80
2011,11,12,21,47,6.80
2011,11,12,21,48,6.80
2011,11,12,21,49,6.80
2011,11,12,21,50,6.80
2011,11,12,21,51,6.80
2011,11,12,21,52,6.80
2011,11,12,21,53,6.80
2011,11,12,21,54,6.70
2011,11,12,21,55,6.70
2011,11,12,21,56,6.70
2011,11,12,21,57,6.70
2011,11,12,21,58,6.70
2011,11,12,21,59,6.70
2011,11,12,22,00,6.70
2011,11,12,22,01,6.70
2011,11,12,22,02,6.60
2011,11,12,22,03,6.60
2011,11,12,22,04,6.60
2011,11,12,22,05,6.60
2011,11,12,22,06,6.60
2011,11,12,22,07,6.60
2011,11,12,22,08,6.60
2011,11,12,22,09,6.60
2011,11,12,22,10,6.60
2011,11,12,22,11,6.60
2011,11,12,22,12,6.60
2011,11,12,22,13,6.60
2011,11,12,22,14,6.60
2011,11,12,22,15,6.60
2011,11,12,22,16,6.60
2011,11,12,22,17,6.50
2011,11,12,22,18,6.40
2011,11,12,22,19,6.40
2011,11,12,22,20,6.40
2011,11,12,22,21,6.40
2011,11,12,22,22,6.30
2011,11,12,22,23,6.30
2011,11,12,22,24,6.30
2011,11,12,22,25,6.20
2011,11,12,22,26,6.20
2011,11,12,22,27,6.20
2011,11,12,22,28,6.10
2011,11,12,22,29,6.10
2011,11,12,22,30,6.00
2011,11,12,22,31,6.00
2011,11,12,22,32,6.00
2011,11,12,22,33,5.90
2011,11,12,22,34,5.90
2011,11,12,22,35,5.90
2011,11,12,22,36,5.90
2011,11,12,22,37,5.90
2011,11,12,22,38,5.90
2011,11,12,22,39,5.90
2011,11,12,22,40,5.90
2011,11,12,22,41,5.90
2011,11,12,22,42,5.90
2011,11,12,22,43,5.90
2011,11,12,22,44,5.90
2011,11,12,22,45,5.90
2011,11,12,22,46,5.90
2011,11,12,22,47,5.90
2011,11,12,22,48,5.90
2011,11,12,22,49,5.90
2011,11,12,22,50,5.90
2011,11,12,22,51,5.90
2011,11,12,22,52,5.90
2011,11,12,22,53,5.90
2011,11,12,22,54,5.90
2011,11,12,22,55,5.90
2011,11,12,22,56,5.90
2011,11,12,22,57,5.90
2011,11,12,22,58,5.90
2011,11,12,22,59,5.90
2011,11,12,23,00,5.90
2011,11,12,23,01,5.90
2011,11,12,23,02,5.90
2011,11,12,23,03,5.90
2011,11,12,23,04,5.90
2011,11,12,23,05,5.90
2011,11,12,23,06,5.90
2011,11,12,23,07,5.90
2011,11,12,23,08,5.90
2011,11,12,23,09,5.90
2011,11,12,23,10,5.90
2011,11,12,23,11,5.90
2011,11,12,23,12,5.90
2011,11,12,23,13,5.90
2011,11,12,23,14,5.90
2011,11,12,23,15,5.90
2011,11,12,23,16,5.80
2011,11,12,23,17,5.80
2011,11,12,23,18,5.80
2011,11,12,23,19,5.80
2011,11,12,23,20,5.80
2011,11,12,23,21,5.80
2011,11,12,23,22,5.80
2011,11,12,23,23,5.80
2011,11,12,23,24,5.80
2011,11,12,23,25,5.80
2011,11,12,23,26,5.80
2011,11,12,23,27,5.80
2011,11,12,23,28,5.80
2011,11,12,23,29,5.80
2011,11,12,23,30,5.80
2011,11,12,23,31,5.80
2011,11,12,23,32,5.80
2011,11,12,23,33,5.80
2011,11,12,23,34,5.80
2011,11,12,23,35,5.80
2011,11,12,23,36,5.80
2011,11,12,23,37,5.80
2011,11,12,23,38,5.80
2011,11,12,23,39,5.80
2011,11,12,23,40,5.80
2011,11,12,23,41,5.80
2011,11,12,23,42,5.80
2011,11,12,23,43,5.80
2011,11,12,23,44,5.80
2011,11,12,23,45,5.80
2011,11,12,23,46,5.80
2011,11,12,23,47,5.80
2011,11,12,23,48,5.80
2011,11,12,23,49,5.80
2011,11,12,23,50,5.90
2011,11,12,23,51,5.90
2011,11,12,23,52,5.90
2011,11,12,23,53,5.90
2011,11,12,23,54,5.90
2011,11,12,23,55,5.90
2011,11,12,23,56,5.90
2011,11,12,23,57,5.90
2011,11,12,23,58,5.90
2011,11,12,23,59,5.90
